• Join FlightAware (Why Join?)
  • Login
  • US Flag 
02:47AM EST


 

Airport Tracker/Info


-or-


 

Live Flight TrackerFlight Track Log ✈ SWA1718 ✈ 15-Jun-2013 ✈ KDAL - KSAT

Flight Track Log - Related Links

Times and Time Zones

All times are in EDT time to prevent confusion due to time zone crossing. See the SWA1718 flight status page for this flight to view local times or setup timezone preferences in your user account.

Time Position Orientation Groundspeed Altitude Reporting Facility
EDT Latitude Longitude Course Direction KTS MPH feet Rate Location/Type
08:51AM 32.8333 -96.8333 140° Southeast 155 178 1,400  Level Dallas / Fort Worth TRACON
08:52AM 32.8000 -96.8000 140° Southeast 182 209 3,700 2,173 Climbing Dallas / Fort Worth TRACON
08:53AM 32.7333 -96.7833 168° South 235 270 6,000 2,886 Climbing Dallas / Fort Worth TRACON
08:56AM 32.5858 -96.8661 205° Southwest 288 331 12,600 3,049 Climbing Fort Worth Center
08:57AM 32.5047 -96.9158 207° Southwest 319 367 15,400 2,900 Climbing Fort Worth Center
08:58AM 32.4275 -96.9681 210° Southwest 345 397 18,400 2,900 Climbing Fort Worth Center
08:59AM 32.3317 -97.0225 206° Southwest 352 405 21,200 2,400 Climbing Fort Worth Center
09:00AM 32.2400 -97.0450 192° South 364 419 23,200 2,100 Climbing Fort Worth Center
09:01AM 32.1253 -97.0797 194° South 375 432 25,400 2,450 Climbing Fort Worth Center
09:02AM 32.0147 -97.1047 191° South 390 449 28,100 2,100 Climbing Fort Worth Center
09:03AM 31.9083 -97.1344 193° South 396 456 29,600 857 Climbing Fort Worth Center
09:04AM 31.7764 -97.1689 193° South 409 471 30,000 179 Climbing Houston Center
09:05AM 31.6603 -97.1994 193° South 419 482 30,000  Level Houston Center
09:06AM 31.5442 -97.2292 192° South 422 486 30,000  Level Houston Center
09:07AM 31.4269 -97.2597 193° South 425 489 30,000 49 Level Houston Center
09:08AM 31.3083 -97.2914 193° South 430 495 30,100  Climbing Houston Center
09:09AM 31.1897 -97.3231 193° South 434 499 30,000 -49 Descending Houston Center
09:10AM 31.0706 -97.3544 193° South 436 502 30,000  Level Houston Center
09:11AM 30.9492 -97.3861 193° South 451 519 30,000  Level Houston Center
09:12AM 30.8064 -97.4214 192° South 452 520 30,000 -341 Level Houston Center
09:13AM 30.6886 -97.4500 192° South 435 501 29,300 -885 Descending Houston Center
09:14AM 30.5775 -97.4792 193° South 411 473 28,200 -976 Descending Houston Center
09:15AM 30.4675 -97.5083 193° South 403 464 27,300 -1,366 Descending Houston Center
09:16AM 30.3558 -97.5464 196° South 413 475 25,400 -2,195 Descending Houston Center
09:17AM 30.2592 -97.6122 210° Southwest 399 459 22,800 -2,488 Descending Houston Center
09:18AM 30.1664 -97.6767 211° Southwest 388 447 20,300 -2,475 Descending Houston Center
09:18AM 30.1350 -97.6986 211° Southwest 384 442 19,500 -2,557 Descending Houston Center
09:19AM 30.0653 -97.7469 211° Southwest 378 435 17,700 -2,548 Descending Houston Center
09:20AM 30.0189 -97.7789 211° Southwest 367 422 16,400 -2,419 Descending Houston Center
09:20AM 29.9792 -97.8042 209° Southwest 360 414 15,200 -2,459 Descending Houston Center
09:21AM 29.9361 -97.8353 212° Southwest 349 402 13,900 -2,164 Descending Houston Center
09:21AM 29.8978 -97.8636 213° Southwest 347 399 13,000 -1,700 Descending Houston Center
09:22AM 29.8833 -97.9192 253° West 340 391 12,200 -1,645 Descending Houston Center
09:22AM 29.8747 -97.9739 260° West 327 376 11,300 -1,574 Descending Houston Center
09:23AM 29.8678 -98.0197 260° West 318 366 10,600 -1,377 Descending Houston Center
09:23AM 29.8586 -98.0719 259° West 315 362 9,900 -1,475 Descending Houston Center
09:24AM 29.8517 -98.1158 260° West 300 345 9,100 -1,672 Descending Houston Center
09:24AM 29.8431 -98.1636 258° West 295 339 8,200 -1,600 Descending Houston Center
09:25AM 29.8367 -98.2044 260° West 287 330 7,500 -1,548 Descending Houston Center
09:25AM 29.8278 -98.2594 259° West 285 328 6,600 -1,377 Descending Houston Center
09:26AM 29.8219 -98.2931 259° West 279 321 6,100 -590 Descending Houston Center
09:26AM 29.8133 -98.3464 259° West 278 320 6,000  Descending Houston Center
09:27AM 29.8075 -98.3861 260° West 277 319 6,100  Climbing Houston Center
09:27AM 29.7989 -98.4336 258° West 279 321 6,000  Descending Houston Center
09:28AM 29.7944 -98.4744 263° West 278 320 6,100 -197 Climbing Houston Center
09:28AM 29.7800 -98.5228 251° West 268 308 5,800 -716 Descending Houston Center
09:29AM 29.7569 -98.5464 222° Southwest 243 280 5,300 -968 Descending Houston Center
09:29AM 29.7294 -98.5703 217° Southwest 235 270 4,800 -900 Descending Houston Center
09:30AM 29.7086 -98.5906 220° Southwest 214 246 4,400 -984 Descending Houston Center
09:30AM 29.6828 -98.6142 218° Southwest 205 236 3,800 -1,082 Descending Houston Center
09:31AM 29.6608 -98.6203 194° South 181 208 3,300 -774 Descending Houston Center
09:31AM 29.6367 -98.6044 150° Southeast 185 213 3,000 -295 Descending Houston Center
09:32AM 29.6200 -98.5867 137° Southeast 174 200 3,000 -393 Level Houston Center
09:32AM 29.6036 -98.5633 129° Southeast 175 201 2,600 -800 Descending Houston Center
09:33AM 29.5892 -98.5472 136° Southeast 168 193 2,200 -774 Descending Houston Center
09:33AM 29.5731 -98.5239 128° Southeast 154 177 1,800 -689 Descending Houston Center
09:34AM 29.5650 -98.5142 134° Southeast 131 151 1,500 -689 Descending Houston Center
09:34AM 29.5506 -98.4933 129° Southeast 131 151 1,100 -667 Descending Houston Center
09:36AM 29.5340 -98.4691 171° South  Level Estimated
09:43AM 29.5333 -98.4667 16° North  Level FlightAware Approximate
09:44AM 29.5340 -98.4691 16° North  Level Estimated